Regional Weather Roundup
Issued by NWS

Home | Current Version | Previous Version | Text Only | Print | Product List | Glossary Off
Versions: 1 2 3 4 5 6 7 8 9 10 11 12 13 14 15 16 17 18 19 20 21 22 23 24 25 26 27 28 29 30 31 32 33 34 35 36 37 38 39 40 41 42 43 44 45 46 47 48 49 50

000
ASUS43 KLOT 020108
RWRIL

ILLINOIS REGIONAL WEATHER ROUNDUP
NATIONAL WEATHER SERVICE CHICAGO/ROMEOVILLE IL
800 PM CDT WED APR 01 2015

NOTE: "FAIR" INDICATES FEW OR NO CLOUDS BELOW 12,000 FEET WITH NO
SIGNIFICANT WEATHER AND/OR OBSTRUCTIONS TO VISIBILITY.

* THESE STATIONS ARE NOT UNDER NWS QUALITY CONTROL. THEY ALSO MAY NOT
  REPORT WEATHER SUCH AS PRECIPITATION OR FOG.

ILZ001-002-007-009-015-016-024-020200-
NORTHWEST ILLINOIS

CITY           SKY/WX    TMP DP  RH WIND       PRES   REMARKS
MOLINE         PTCLDY    69  33  26 S16G24    29.78F
STERLING*      CLEAR     66  37  34 S10G16    29.82S
SAVANNA*       CLEAR     67  34  29 S18       29.78S
$$

ILZ003-004-008-010-011-017-018-020200-
NORTH CENTRAL ILLINOIS

CITY           SKY/WX    TMP DP  RH WIND       PRES   REMARKS
ROCKFORD       PTCLDY    66  38  35 S20       29.83S
FREEPORT*      CLEAR     62  38  39 S15       29.81S
ROCHELLE*      CLEAR     63  38  40 S16       29.84S
DE KALB*       CLEAR     59  39  47 S15       29.87R
PERU*          CLEAR     64  38  37 S15G23    29.87R
$$

ILZ005-006-012>014-019>023-020200-
NORTHEAST ILLINOIS

CITY           SKY/WX    TMP DP  RH WIND       PRES   REMARKS
CHICAGO-OHARE  PTCLDY    65  38  36 S17       29.87R
CHICAGO-MIDWAY PTCLDY    68  37  32 S14G22    29.90R
AURORA         CLEAR     65  37  35 S15       29.87R
LANSING*       PTCLDY    58  35  42 S9        29.92R
JOLIET*        CLEAR     66  39  36 S12G17    29.90R
WAUKEGAN       PTCLDY    66  37  34 S18G30    29.84S
DUPAGE AIRPORT PTCLDY    65  38  36 S18       29.87R
KANKAKEE*      PTCLDY    60  40  48 S10       29.93R
WHEELING       PTCLDY    66  37  34 S17       29.88R
MORRIS*        CLEAR     64  38  38 S15       29.88S
ROMEOVILLE*    CLEAR     63  37  39 S17G23    29.89S
NORTHERLY ISL    N/A     66  35  31 S8          N/A
$$

LMZ740>746-020200-
SOUTHERN LAKE MICHIGAN

STATION/POSITION SKY/WX   TEMP    WIND        PRES    VSBY  WAVE
                          AIR SEA DIR/SP/G                  HT/PER
                          (F)     (DEG/KT/KT) (MB)    (MI)  (FT/S)
HARRISON CRIB              62     180/ 24/ 29   N/A
BURNHAM HARBOR             66     160/ 12/ 19   N/A
CALUMET HARBOR             69     170/ 11/ 17 1011.2F
BURNS HARBOR               67     180/ 14/ 18 1013.2F
MICHIGAN CITY              66     160/ 13/ 16   N/A
$$

ILZ025>027-034>036-040-047-049-050-058-095>099-020200-
WEST-CENTRAL ILLINOIS

CITY           SKY/WX    TMP DP  RH WIND       PRES   REMARKS
QUINCY         CLOUDY    68  37  32 S12       29.81S
GALESBURG*     MOCLDY    64  37  37 SE8       29.82S
MACOMB*        CLOUDY    67  37  33 S14       29.83F
JACKSONVILLE*  CLOUDY    69  39  33 SE12G17   29.86S
PITTSFIELD*    CLOUDY    67  40  37 SE13      29.85S
$$

ILZ028>032-037-038-041>044-048-051>054-059>061-020200-
CENTRAL ILLINOIS

CITY           SKY/WX    TMP DP  RH WIND       PRES   REMARKS
PONTIAC        CLEAR     63  43  47 S15       29.91S
BLOOMINGTON    PTCLDY    62  43  49 S16       29.91S
DECATUR        MOCLDY    64  40  41 S13       29.91F
PEORIA         MOCLDY    68  40  35 S13       29.86F
LACON*         PTCLDY    66  39  37 S15       29.85S
LINCOLN*       CLOUDY    65  41  41 S13G20    29.88S
SPRINGFIELD    CLOUDY    67  40  37 S15       29.88F
TAYLORVILLE    MOCLDY    63  41  45 SE14      29.91S
$$

ILZ033-039-045-046-055>057-062-063-020200-
EAST-CENTRAL ILLINOIS

CITY           SKY/WX    TMP DP  RH WIND       PRES   REMARKS
CHAMPAIGN      PTCLDY    62  40  44 S15       29.94F
DANVILLE*      PTCLDY    59  39  47 S8        29.94R
RANTOUL*       PTCLDY    59  43  55 S9        29.94S
MATTOON        MOCLDY    61  40  45 SE9       29.94F
PARIS*         PTCLDY    55  42  63 S8        29.98S
$$

ILZ079-100>102-020200-
SOUTHWEST ILLINOIS

CITY           SKY/WX    TMP DP  RH WIND       PRES   REMARKS
ALTON          MOCLDY    68  30  24 S14       29.90S
BELLEVILLE     CLOUDY    68  41  38 VRB6      29.90S
CAHOKIA*       CLOUDY    69  40  34 SE10      29.88F
SPARTA*        CLOUDY    67  41  38 SE3       29.91F
$$

ILZ064>066-069>071-074>076-080>082-084>086-088>090-092>094-020200-
SOUTH-CENTRAL ILLINOIS

CITY           SKY/WX    TMP DP  RH WIND       PRES   REMARKS
CARBONDALE     CLOUDY    67  40  37 SE5       29.93F
CAIRO*         CLOUDY    66  50  57 E3        29.95S
EFFINGHAM*     MOCLDY    63  37  38 E8        29.97R
MARION         CLOUDY    70  37  30 SE6       29.94F
MT. VERNON     CLOUDY    66  37  34 E6        29.95F
CENTRALIA*     CLOUDY    65  38  36 SE8       29.94S
SALEM*         CLOUDY    68  37  31 SE7       29.94F
METROPOLIS*    CLOUDY    70  40  32 E6        29.96S
$$

ILZ067-068-072-073-078-083-087-091-020200-
SOUTHEAST ILLINOIS

CITY           SKY/WX    TMP DP  RH WIND       PRES   REMARKS
LAWRENCEVILLE  MOCLDY    60  38  43 SE10      29.99F
FLORA*         MOCLDY    60  42  52 SE7       29.97R
FAIRFIELD*     CLOUDY    62  43  48 SE6       29.95R
HARRISBURG*    CLOUDY    64  43  46 SE7       29.97S
ROBINSON*      MOCLDY    60  37  42 SE8       29.99F
CARMI*         CLOUDY    60  39  45 SE7       29.97R
$$

ABBREVIATIONS USED IN REMARKS
   TC - TEMPERATURE IN CELSIUS
  WCI - WIND CHILL INDEX
   HX - HEAT INDEX
  VSB - VISIBILITY
$$




USA.gov is the U.S. government's official web portal to all federal, state and local government web resources and services.